星链-32505 (STARLINK-32505)

导读

STARLINK-32505是美国太空探索技术公司SpaceX星链星座的成员卫星,于2025年2月23日发射入轨。星链星座依托近地轨道部署大量小型卫星,结合地面站网络,旨在为全球偏远无网络覆盖区域提供低延迟、高速宽带互联网服务。该卫星加入后进一步扩充了星链星座的全球覆盖能力与服务容量,推动星链项目全球化服务布局。

Basic Information
目录编号:
63085
目录名称:
STARLINK-32505
国际标识:
2025-037J
轨道中心:
EARTH
卫星名称:
星链-32505
卫星全名:
星链-32505 (STARLINK-32505)
卫星状态:
在轨 (已飞行559 天)
发射日期:
2025-02-23 UTC
国别 :
美国 (US)
星等 :
--
Orbit Information
数据来源 国际轨道数据
星历时间: 2026-09-05T12:00:02+0800
5小时前
查看轨道信息
半长轴: 6873.56km
偏心率: 0.0004345
轨道倾角: 70.003°
近地点辐角 260.997°
升交点赤经 261.732°
平近点角 9.294°
近地点: 492.436km
远地点: 498.41km
周期: 94.522分钟
每日圈数: 15.23457
Detailed Information
固有亮度:
5
最大亮度:
2.5
卫星平台:
Starlink V1.0
覆盖范围:
全球
运营商:
太空探索技术公司
运营商所在国:
美国
制造商(研发单位):
太空探索技术公司
制造商所在国:
美国
使用方式:
暂无
Satellite Introduction
Starlink 计划是 SpaceX 推出的全球卫星互联网项目,通过发射低轨道卫星,为全球尤其是偏远地区提供高速、低延迟的互联网服务。自 2019 年起,Starlink 已部署数千颗卫星,旨在缩小全球数字鸿沟,推动互联网普及。该项目还为军事、航空等行业提供通信支持,带来广泛经济效益。
2D Orbit Map
3D Orbit Map
Orbit Altitude Analysis Chart
Orbit Inclination Analysis Chart
Orbit Comprehensive Analysis Chart
View Comprehensive Chart
Conjunction Data List
Event ID Objects TCA Miss Dist (km) Collision Risk Probability Collision Risk Index (CRI) Action
CDM_260905-221606-308506-654321
2026-09-05T
22:16:44+0000
0.428 km
远距离
2.120785E-4 高风险 0.82
CDM_260906-144405-972306-308521
2026-09-06T
14:44:48+0000
0.661 km
远距离
8.646231E-5 中风险 0.74
CDM_260905-192706-308506-389421
2026-09-05T
19:27:29+0000
0.807 km
远距离
2.33851E-5 中风险 0.62
CDM_260906-195106-308506-824921
2026-09-06T
19:51:56+0000
1.120 km
极远距离
1.367979E-5 中风险 0.58
CDM_260906-164506-308506-968521
2026-09-06T
16:45:11+0000
1.448 km
极远距离
7.60686E-6 低风险 0.53
CDM_260905-112806-308506-332821
2026-09-05T
11:28:43+0000
1.506 km
极远距离
5.969138E-6 低风险 0.51
CDM_260906-120406-308506-943921
2026-09-06T
12:04:17+0000
1.800 km
极远距离
3.776671E-6 低风险 0.47
CDM_260902-053106-308506-493221
2026-09-02T
05:31:52+0000
1.879 km
极远距离
3.402522E-6 低风险 0.46
CDM_260906-183905-972306-308521
2026-09-06T
18:39:23+0000
2.048 km
极远距离
2.323997E-6 低风险 0.42
CDM_260905-203904-284406-308521
NANOACE (42844)
2026-09-05T
20:39:47+0000
2.257 km
极远距离
2.166519E-6 低风险 0.42